Grand Marais, MN

7:02 PM CDT on May 25, 2017 (GMT -0500)
Grand Marais

Weather History for KGNA - May, 2013

Change the Weather History Date:

Tuesday, May 28, 2013

  Actual Average (KCKC) Record (KCKC)
Temperature  
Mean Temperature 44 °F -  
Max Temperature 48 °F 60 °F 78 °F (1998)
Min Temperature 41 °F 39 °F 28 °F (2004)
Degree Days  
Heating Degree Days 20    
Moisture  
Dew Point 36 °F    
Average Humidity 74    
Maximum Humidity 85    
Minimum Humidity 61    
Precipitation  
Precipitation 0.00 in - - ()
Sea Level Pressure  
Sea Level Pressure 29.84 in    
Wind  
Wind Speed 7 mph (ENE)    
Max Wind Speed 12 mph    
Max Gust Speed 17 mph    
Averages and records for this station are not official NWS values.
T = Trace of Precipitation, MM = Missing Value Source: NWS Daily Summary

Daily Weather History Graph

Daily Weather History Graph

Search for Another Location

Airport or City:

Trip Planner

Search our weather history database for the weather conditions in past years. The results will help you decide how hot, cold, wet, or windy it might be!

Date:

Astronomy

May. 28, 2013 Rise Set
Actual Time 5:09 AM CDT 8:48 PM CDT
Civil Twilight 4:30 AM CDT 9:27 PM CDT
Nautical Twilight 3:38 AM CDT 10:19 PM CDT
Astronomical Twilight 2:26 AM CDT 11:33 PM CDT
Moon No Moon Rise 9:05 AM CDT (5/28)
Length of Visible Light 16h 56m
Length of Day
15h 38m
Waning Gibbous, 82% of the Moon is Illuminated
May 28
Waning Gibbous
May 31
Last Quarter
Jun 8
New
Jun 16
First Quarter
Jun 23
Full

Hourly Weather History & Observations

Time (CDT) Temp. Windchill Dew Point Humidity Pressure Visibility Wind Dir Wind Speed Gust Speed Precip Events Conditions
12:56 AM 48.0 °F - 35.1 °F 61% 29.94 in - ENE 8.1 mph - N/A   Unknown
1:56 AM 44.1 °F 40.8 °F 36.0 °F 73% 29.93 in - NE 5.8 mph - N/A   Unknown
2:56 AM 44.1 °F - 36.0 °F 73% 29.91 in - Calm Calm - N/A   Unknown
3:56 AM 42.1 °F 39.2 °F 36.0 °F 79% 29.90 in - ENE 4.6 mph - N/A   Unknown
4:56 AM 41.0 °F 36.4 °F 35.1 °F 79% 29.89 in - ENE 6.9 mph - N/A   Unknown
5:56 AM 42.1 °F - 36.0 °F 79% 29.90 in - Calm Calm - N/A   Unknown
6:56 AM 43.0 °F 40.3 °F 36.0 °F 76% 29.88 in - ENE 4.6 mph - N/A   Unknown
7:56 AM 43.0 °F 38.8 °F 36.0 °F 76% 29.88 in - ENE 6.9 mph - N/A   Unknown
8:56 AM 44.1 °F 38.1 °F 35.1 °F 71% 29.87 in - ENE 11.5 mph - N/A   Unknown
9:56 AM 43.0 °F 36.8 °F 35.1 °F 74% 29.86 in - ENE 11.5 mph - N/A   Unknown
10:56 AM 45.0 °F 39.7 °F 36.0 °F 71% 29.85 in - ENE 10.4 mph 17.3 mph N/A   Unknown
11:56 AM - - - N/A% 29.84 in - ENE 10.4 mph - N/A   Unknown
12:56 PM 45.0 °F - 35.1 °F 68% 29.84 in - North - - N/A   Unknown
1:56 PM 46.0 °F 41.0 °F 36.0 °F 68% 29.83 in - ENE 10.4 mph - N/A   Unknown
2:56 PM 44.1 °F 38.6 °F 36.0 °F 73% 29.82 in - ENE 10.4 mph - N/A   Unknown
3:56 PM 46.9 °F - 36.0 °F 66% 29.81 in - ENE 8.1 mph - N/A   Unknown
4:56 PM 45.0 °F 39.7 °F 36.0 °F 71% 29.80 in - ENE 10.4 mph - N/A   Unknown
5:56 PM 46.0 °F 41.4 °F 36.0 °F 68% 29.79 in - ENE 9.2 mph - N/A   Unknown
6:56 PM 45.0 °F 42.6 °F 36.0 °F 71% 29.80 in - ENE 4.6 mph - N/A   Unknown
7:56 PM 46.0 °F 42.5 °F 37.0 °F 71% 29.80 in - ENE 6.9 mph - N/A   Unknown
8:56 PM 45.0 °F 41.8 °F 37.9 °F 76% 29.78 in - ENE 5.8 mph - N/A   Unknown
9:56 PM 44.1 °F 40.8 °F 37.9 °F 79% 29.77 in - ENE 5.8 mph - N/A   Unknown
10:56 PM 42.1 °F 38.4 °F 37.9 °F 85% 29.77 in - ENE 5.8 mph - N/A   Unknown
11:56 PM 42.1 °F - 37.9 °F 85% 29.76 in - Calm Calm - N/A   Unknown